디시인사이드 갤러리

리듬게임 갤러리

갤러리 이슈박스, 최근방문 갤러리

갤러리 본문 영역

과로사 ㅁㅊ나앱에서 작성

ㅇㅇ(175.223) 2020.07.03 18:17:14
조회 194 추천 0 댓글 2

또 갓는데?

추천 비추천

0

고정닉 0

2

댓글 영역

전체 리플 0
등록순정렬 기준선택

하단 갤러리 리스트 영역

왼쪽 컨텐츠 영역

갤러리 리스트 영역

갤러리 리스트
번호 제목 글쓴이 작성일 조회 추천
이슈 월간디시 8월호 : 반갑다 논란아 운영자 20/07/31 - -
설문 '나 5cm만 주라' 키 커서 부러운 여자 아이돌은? 운영자 20/08/04 - -
공지 리듬게임에 관련된 사진과 내용을 올려주시기 바랍니다. [745] 운영자 06.08.29 10673530 207
11140312 따스 이어뮤 참조하는거보니까 데이터연동하는건가 Flexin(210.91) 10:52 5 0
11140311 날씨가 좋다못해 너무 좋아서 화나네 [2] 츠다냥갤로그로 이동합니다. 10:51 8 0
11140310 씨발 딱기다려라 ㅋㅋㅋㅋㅋ [7] Flexin(210.91) 10:50 27 0
11140309 배가고파요 [3] 옾션갤로그로 이동합니다. 10:48 22 0
11140308 새로운 따스 홈 [2] yen(175.223) 10:43 49 0
11140307 인투더매드니스 dp 보니까 이거 생각남 츠다냥갤로그로 이동합니다. 10:42 17 0
11140306 안녕병신들아 [4] 이잌(116.35) 10:41 37 0
11140305 뺌스 따스 오스 맥스 mdt갤로그로 이동합니다. 10:38 21 0
11140304 벨플풀콤 [5] 바나리11갤로그로 이동합니다. 10:37 42 5
11140303 오늘 폭우라는데 오락실을가야하나 [1] RaFan갤로그로 이동합니다. 10:34 23 0
11140302 매드니스근데 중약 연습하기 괴 좋아보이는데 일부는시즈모드됐고일부는통통통통갤로그로 이동합니다. 10:33 22 0
11140301 븜스 따스 오스 [1] 고간갤로그로 이동합니다. 10:33 29 0
11140300 노량진 대여가 자유롭긴 하네 [2] ㅇㅇ(110.70) 10:29 54 0
11140299 개인적으로 디스컨트롤드갤럭시 기대햇는데 아쉽내 [2] 한혜림갤로그로 이동합니다. 10:29 42 0
11140298 어 갑자기 비트 하러가기 귀찮네.... [5] MKP-04갤로그로 이동합니다. 10:27 44 0
11140297 매드니스 dpa 11.8정도될듯 꼰마갤로그로 이동합니다. 10:26 23 0
11140296 신곡영상이요 [3] 말걸리기장인갤로그로 이동합니다. 10:24 77 0
11140295 신곡 2513 바나리11갤로그로 이동합니다. 10:23 28 0
11140294 따스 홈페이지 다운 배너가 사라짐 [1] ㅇㅈ(116.43) 10:19 52 0
11140293 건대 주말 대여 09:00~01:00로 되어있는거 새벽 1시까지란거? [4] ㅇㅇ(117.111) 10:18 79 0
11140292 아무도 안궁금해하는 DDR이요 [1] RottenBlotch갤로그로 이동합니다. 10:17 70 0
11140291 이번주 토요일 주작왕 예약잡았다 끼요오오옷 [2] 뉴욕대공황갤로그로 이동합니다. 10:17 48 0
11140290 오늘 따스 업뎃 된다고 해도 kinetic갤로그로 이동합니다. 10:16 28 0
11140289 따스는대체누가이름붙인거. [2] blurtic갤로그로 이동합니다. 10:16 80 0
11140288 아 시발 주안 좆됐네 ㅇㅇ(110.70) 10:15 34 0
11140287 따스 결국 10시에 없뎃 [1] kinetic갤로그로 이동합니다. 10:14 49 0
11140286 와 사볼 저거 노래 개좋은데 [1] ㅁㅁ갤로그로 이동합니다. 10:14 45 0
11140285 아침으로 음식 500그램은 때리부은듯 [1] 5123874갤로그로 이동합니다. 10:14 24 0
11140284 인투더매드니스빡세다 [4] 말걸리기장인갤로그로 이동합니다. 10:12 73 0
11140283 따스 런처 다운로드페이지 내려갔네 십 ㅋㅋㅋ [3] Flexin(210.91) 10:11 65 0
11140282 꺼어어어어어억ㅋㅋㅋㅋㅋㅋ [4] RottenBlotch갤로그로 이동합니다. 10:11 59 1
11140281 11랩 뭐냐 신곡 [2] 바나리11갤로그로 이동합니다. 10:05 79 0
11140280 인투더매드니스 작곡가 근황 RottenBlotch갤로그로 이동합니다. 10:05 61 0
11140279 콘마이 일안해????? [1] Flexin(210.91) 10:05 39 0
11140278 디디알 서드 산 사람이 있긴있네 [1] ㅇㅇ(59.28) 10:05 61 0
11140277 매드니스 뭔곡임 [2] xiPOId갤로그로 이동합니다. 10:04 48 0
11140276 신곡 레벨 떳다고함 [3] 츠다냥갤로그로 이동합니다. 10:04 84 1
11140275 차 사고 3년 86000키로 탔는데요 [5] 팥2(39.7) 10:04 43 0
11140274 Into the Madness 11렙 [1] ㅇㅇ(61.254) 10:03 38 0
11140273 개빡치네시발ㅋㅋ [4] 말걸리기장인갤로그로 이동합니다. 10:03 52 0
11140272 여러분의 의견에 따라 오락실을 안가기로 결정했습니다.. [4] 꼰마갤로그로 이동합니다. 10:02 59 0
11140271 오늘 육지로 돌아가는데요 [4] 팥2(39.7) 10:02 33 0
11140270 휴게실 갈 때마다 맨날 보이는 직원이 있다. [5] blurtic갤로그로 이동합니다. 09:57 74 0
11140269 와 17일에 출근 안해도 된다 [3] HPMP갤로그로 이동합니다. 09:56 51 0
11140268 ㅎㅇ [6] 꼰마갤로그로 이동합니다. 09:56 56 0
11140267 수건 한번쓰면 안마름 빨래 절대 안 마름 [1] 뉴욕대공황갤로그로 이동합니다. 09:54 49 0
11140266 알바구하기졸라애매하네 [1] 정왕동부엉이갤로그로 이동합니다. 09:50 25 0
11140265 형이 내 얼굴 보더니 피부과 가라고 난리침 [7] 갓재삼(175.200) 09:49 59 0
11140264 버튼 존나박힘 [4] 바나리11갤로그로 이동합니다. 09:46 71 0
갤러리 내부 검색
전체게시물 정렬 옵션

오른쪽 컨텐츠 영역

이슈줌NEW

1/6

힛(HIT)NEW

그때 그 힛

1/3